FENGYUN 1C DEB

Satellite information

Favourite Embed

Satellite Type and Status

DEBRISIN ORBIT

Key statistics

Satellite FENGYUN 1C DEB at a glance.

Uptime

9494

Days in orbit

Revolutions

≈ 14.2

Per day

Orbit

SSO

Sun Synchronous Orbit

Inclination

98.7

Latest

Satellite identification and parameters

Extended collection of information and parameters for FENGYUN 1C DEB.

Object identification

Identified? True

Debris? True

Object name: FENGYUN 1C DEB

International designator: 1999-025EYS

Object number (NORAD): 45527

Object ID (CCSDS): 45527

Country: PEOPLES REPUBLIC OF CHINA (PRC)

Current information (Y/N): Y

RCS size: SMALL

Orbital parameters

Period: 101.205 minutes

Inclination: 98.7475 deg

SMA: 7193.829 km

Apoapsis: 857.56 km

Periapsis: 773.828 km

RAAN: 193.0246 deg

Eccentricy: 0.0058197

Argument of periapsis: 147.9019 deg

Mean anomaly: 212.5724 deg

Mean motion: 14.22861433 rev/day

Mean motion (dot): 0.00004519 rev/day2

B* drag term: 0.0019953 1/REarth

Two-line elements (TLE)

Creation date: May 6, 2025, 3:54 a.m.

Reference frame: TEME

Reference center: EARTH

Epoch: May 5, 2025, 2:29 a.m. UTC

TLE line 0: 0 FENGYUN 1C DEB

TLE line 1: 1 45527U 99025EYS 25125.10384875 .00004519 00000-0 19953-2 0 9997

TLE line 2: 2 45527 98.7475 193.0246 0058197 147.9019 212.5724 14.22861433364269

Live tracking on map

Real-time ground track for satellite FENGYUN 1C DEB.

In-orbit conjunctions

A list of the most updated potential collisions computed for object FENGYUN 1C DEB.

Target Orbit TCA Probability of collision Miss distance Type
COSMOS 2360 LEO 2025-01-13 18:44:01 0.0001920425 309.0 (m) PAYLOAD
COSMOS 1275 DEB LEO 2024-12-12 16:46:40 0.0001868478 75.0 (m) DEBRIS
SL-16 R/B LEO 2024-11-09 19:49:00 0.0004614529 249.0 (m) ROCKET BODY
METEOR 2-8 DEB LEO 2024-06-17 20:05:31 0.0001609011 96.0 (m) DEBRIS

Associated space launch

Chinese polar orbiting meteorological satellite

FENGYUN 1C DEB was lifted into orbit during the mission ‘Long March 4B | Feng Yun 1C’, on board a Long March 4B space rocket.

The launch took place on May 10, 1999, 1:33 a.m. from Launch Complex 7.

For more information about the launch, click the button.

Launch to space Long March 4B | Feng Yun 1C
Long March 4B | Feng Yun 1C

Agency: N/A

Status: Launch Successful

Launch date: May 10, 1999, 1:33 a.m. UTC

Rocket: Long March 4B

Launch pad: Launch Complex 7

Location: Taiyuan Satellite Launch Center, People's Republic of China

...

Latest news about this satellite

There are no fresh news available about this satellite. Check back as we update our databases every day.


Newsletter sign-up

Weekly statistics, charts and insights to help you stay on top of the space industry.